| time (UTC) | temp F | wind direction | speed MPH | gust MPH | rain 1hr in | rain 24hr in | rain mn in | humidity % | barometer mb |
| 20260902023822 | 78 | 324 | 0.0 | 0.0 | 0.00 | 0.06 | 0.06 | 50 | 1016.4 |
| 20260902020834 | 78 | 323 | 0.0 | 0.0 | 0.00 | 0.06 | 0.06 | 49 | 1016.3 |
| 20260902013818 | 77 | 323 | 0.0 | 0.0 | 0.00 | 0.06 | 0.06 | 46 | 1016.1 |
| 20260902010821 | 77 | 323 | 0.0 | 0.0 | 0.00 | 0.06 | 0.06 | 44 | 1016.3 |
| 20260902003812 | 77 | 323 | 0.0 | 0.0 | 0.00 | 0.06 | 0.06 | 42 | 1015.9 |
| 20260902000855 | 78 | 323 | 0.0 | 2.0 | 0.01 | 0.06 | 0.06 | 42 | 1016.1 |
| 20260901233824 | 79 | 323 | 0.0 | 3.0 | 0.01 | 0.06 | 0.06 | 41 | 1016.0 |
| 20260901230831 | 80 | 142 | 0.0 | 1.0 | 0.02 | 0.05 | 0.05 | 40 | 1015.9 |
| 20260901223845 | 80 | 215 | 0.0 | 2.0 | 0.03 | 0.05 | 0.05 | 41 | 1015.0 |
| 20260901220822 | 80 | 215 | 0.0 | 0.0 | 0.01 | 0.03 | 0.03 | 44 | 1015.1 |
| 20260901213857 | 79 | 215 | 0.0 | 0.0 | 0.02 | 0.02 | 0.02 | 45 | 1015.3 |
| 20260901210814 | 79 | 284 | 0.0 | 2.0 | 0.02 | 0.02 | 0.02 | 52 | 1014.7 |
| 20260901203823 | 83 | 355 | 3.0 | 11.0 | 0.00 | 0.00 | 0.00 | 58 | 1014.9 |
| 20260901200827 | 88 | 42 | 5.0 | 20.0 | 0.00 | 0.00 | 0.00 | 53 | 1014.3 |
| 20260901193812 | 92 | 33 | 3.0 | 6.0 | 0.00 | 0.00 | 0.00 | 47 | 1014.2 |
| 20260901190816 | 92 | 40 | 4.0 | 8.0 | 0.00 | 0.00 | 0.00 | 48 | 1014.8 |
| 20260901183836 | 91 | 349 | 1.0 | 5.0 | 0.00 | 0.00 | 0.00 | 49 | 1015.3 |
| 20260901180832 | 90 | 87 | 1.0 | 6.0 | 0.00 | 0.00 | 0.00 | 50 | 1015.6 |
| 20260901173832 | 90 | 40 | 3.0 | 9.0 | 0.00 | 0.00 | 0.00 | 49 | 1016.0 |
| 20260901170850 | 91 | 20 | 2.0 | 5.0 | 0.00 | 0.00 | 0.00 | 47 | 1016.2 |
| 20260901163829 | 89 | 40 | 3.0 | 10.0 | 0.00 | 0.00 | 0.00 | 36 | 1016.6 |
| 20260901160825 | 90 | 155 | 1.0 | 6.0 | 0.00 | 0.00 | 0.00 | 36 | 1017.1 |
| 20260901153825 | 89 | 33 | 3.0 | 6.0 | 0.00 | 0.00 | 0.00 | 34 | 1017.2 |
| 20260901150842 | 87 | 327 | 1.0 | 6.0 | 0.00 | 0.00 | 0.00 | 39 | 1017.1 |
| 20260901143820 | 85 | 19 | 2.0 | 5.0 | 0.00 | 0.00 | 0.00 | 43 | 1017.2 |
| 20260901140838 | 87 | 25 | 3.0 | 4.0 | 0.00 | 0.00 | 0.00 | 40 | 1016.8 |
| 20260901133816 | 85 | 47 | 1.0 | 4.0 | 0.00 | 0.00 | 0.00 | 45 | 1016.7 |
| 20260901130833 | 83 | 19 | 0.0 | 4.0 | 0.00 | 0.00 | 0.00 | 47 | 1016.4 |
| 20260901043818 | 76 | 56 | 0.0 | 0.0 | 0.00 | 0.00 | 0.00 | 42 | 1016.9 |
| 20260901040817 | 76 | 56 | 0.0 | 0.0 | 0.00 | 0.00 | 0.00 | 41 | 1016.9 |
| 20260901033829 | 77 | 56 | 0.0 | 0.0 | 0.00 | 0.00 | 0.00 | 41 | 1017.0 |
| 20260901030838 | 77 | 56 | 0.0 | 0.0 | 0.00 | 0.00 | 0.00 | 41 | 1017.0 |